Weather History for PASI - March, 2013

Change the Weather History Date:

Thursday, March 21, 2013

  Actual Average Record
Temperature  
Mean Temperature 32 °F -  
Max Temperature 36 °F 43 °F 59 °F (1998)
Min Temperature 27 °F 33 °F 19 °F (2001)
Degree Days  
Heating Degree Days 34    
Moisture  
Dew Point 24 °F    
Average Humidity 79    
Maximum Humidity 93    
Minimum Humidity 56    
Precipitation  
Precipitation 0.03 in - - ()
Sea Level Pressure  
Sea Level Pressure 29.91 in    
Wind  
Wind Speed 9 mph (East)    
Max Wind Speed 15 mph    
Max Gust Speed 18 mph    
Visibility 7 miles    
Events Fog , Snow    
Averages and records for this station are not official NWS values.
T = Trace of Precipitation, MM = Missing Value Source: NWS Daily Summary

Daily Weather History Graph

Daily Weather History Graph

Search for Another Location

Airport or City:

Trip Planner

Search our weather history database for the weather conditions in past years. The results will help you decide how hot, cold, wet, or windy it might be!

Date:

Astronomy

Mar. 21, 2013 Rise Set
Actual Time 6:59 AM AKDT 7:18 PM AKDT
Civil Twilight 6:21 AM AKDT 7:56 PM AKDT
Nautical Twilight 5:35 AM AKDT 8:42 PM AKDT
Astronomical Twilight 4:46 AM AKDT 9:32 PM AKDT
Moon 12:59 PM AKDT (3/21) 4:24 AM AKDT (3/21)
Length of Visible Light 13h 35m
Length of Day
12h 19m
Waxing Gibbous, 70% of the Moon is Illuminated
Mar 21
Waxing Gibbous
Mar 27
Full
Apr 2
Last Quarter
Apr 10
New
Apr 18
First Quarter

Hourly Weather History & Observations

Time (AKDT) Temp. Windchill Dew Point Humidity Pressure Visibility Wind Dir Wind Speed Gust Speed Precip Events Conditions
12:36 AM 30.2 °F 20.2 °F 24.8 °F 80% 29.72 in 10.0 mi ESE 12.7 mph - 0.00 in   Overcast
12:53 AM 30.9 °F 20.2 °F 24.1 °F 76% 29.73 in 10.0 mi SE 15.0 mph - 0.00 in   Overcast
1:00 AM 30.2 °F 20.2 °F 23.0 °F 75% 29.74 in 2.5 mi SE 12.7 mph - 0.00 in Snow Snow
1:04 AM 28.4 °F 20.4 °F 24.8 °F 86% 29.74 in 0.8 mi ESE 8.1 mph - 0.00 in Snow Light Snow
1:19 AM 28.4 °F 18.5 °F 26.6 °F 93% 29.75 in 0.5 mi East 11.5 mph - 0.01 in Fog , Snow Snow
1:31 AM 28.4 °F 18.0 °F 26.6 °F 93% 29.74 in 1.2 mi East 12.7 mph 18.4 mph 0.01 in Snow Light Snow
1:38 AM 28.4 °F 18.5 °F 26.6 °F 93% 29.75 in 3.0 mi ESE 11.5 mph - 0.01 in Snow Light Snow
1:53 AM 28.9 °F 20.4 °F 26.1 °F 89% 29.75 in 5.0 mi ESE 9.2 mph - 0.01 in Snow Light Snow
2:19 AM 30.2 °F 25.4 °F 26.6 °F 86% 29.76 in 2.5 mi Variable 4.6 mph - 0.00 in Snow Light Snow
2:28 AM 30.2 °F 26.7 °F 26.6 °F 86% 29.77 in 1.5 mi Variable 3.5 mph - 0.00 in Snow Light Snow
2:45 AM 28.4 °F 20.4 °F 26.6 °F 93% 29.77 in 3.0 mi ESE 8.1 mph - 0.01 in Snow Light Snow
2:53 AM 30.0 °F 21.7 °F 27.0 °F 88% 29.78 in 5.0 mi East 9.2 mph - 0.01 in Snow Light Snow
3:03 AM 28.4 °F 22.2 °F 26.6 °F 93% 29.78 in 6.0 mi East 5.8 mph - 0.00 in Snow Light Snow
3:19 AM 28.4 °F 24.6 °F 26.6 °F 93% 29.79 in 2.5 mi East 3.5 mph - 0.00 in Snow Light Snow
3:22 AM 28.4 °F 24.6 °F 26.6 °F 93% 29.79 in 1.8 mi East 3.5 mph - 0.00 in Snow Light Snow
3:42 AM 28.4 °F 19.1 °F 26.6 °F 93% 29.79 in 0.8 mi East 10.4 mph - 0.01 in Snow Light Snow
3:53 AM 28.0 °F 19.3 °F 26.1 °F 92% 29.80 in 0.8 mi East 9.2 mph - 0.01 in Snow Light Snow
4:00 AM 28.4 °F 19.1 °F 26.6 °F 93% 29.80 in 2.0 mi ESE 10.4 mph - 0.00 in Snow Light Snow
4:03 AM 28.4 °F 18.5 °F 26.6 °F 93% 29.80 in 3.0 mi ESE 11.5 mph - 0.00 in Snow Light Snow
4:46 AM 30.2 °F 21.9 °F 24.8 °F 80% 29.81 in 10.0 mi East 9.2 mph - 0.00 in   Mostly Cloudy
4:53 AM 28.9 °F 19.8 °F 24.1 °F 82% 29.81 in 10.0 mi East 10.4 mph - 0.00 in   Scattered Clouds
5:53 AM 28.9 °F 21.9 °F 24.1 °F 82% 29.81 in 10.0 mi East 6.9 mph - N/A   Partly Cloudy
6:53 AM 28.0 °F 22.8 °F 21.0 °F 75% 29.83 in 10.0 mi ESE 4.6 mph - N/A   Scattered Clouds
7:53 AM 27.0 °F - 21.0 °F 78% 29.85 in 10.0 mi Calm Calm - N/A   Mostly Cloudy
8:53 AM 28.9 °F 21.9 °F 21.9 °F 75% 29.88 in 10.0 mi East 6.9 mph - N/A   Mostly Cloudy
9:53 AM 32.0 °F - 24.1 °F 73% 29.92 in 10.0 mi Calm Calm - N/A   Mostly Cloudy
10:53 AM 33.1 °F - 21.9 °F 64% 29.96 in 10.0 mi Calm Calm - N/A   Mostly Cloudy
11:53 AM 33.1 °F 25.5 °F 19.9 °F 59% 29.99 in 10.0 mi SE 9.2 mph - N/A   Scattered Clouds
12:53 PM 34.0 °F - 19.9 °F 56% 30.02 in 10.0 mi Calm Calm - N/A   Scattered Clouds
1:53 PM 34.0 °F 28.8 °F 23.0 °F 64% 30.06 in 10.0 mi NW 5.8 mph - N/A   Partly Cloudy
2:53 PM 35.1 °F 27.4 °F 25.0 °F 67% 30.08 in 10.0 mi WNW 10.4 mph - N/A   Partly Cloudy
3:53 PM 36.0 °F 28.5 °F 24.1 °F 62% 30.11 in 10.0 mi NNW 10.4 mph - N/A   Partly Cloudy
4:53 PM 35.1 °F 25.9 °F 24.1 °F 64% 30.14 in 10.0 mi NW 13.8 mph - N/A   Scattered Clouds
5:53 PM 35.1 °F 26.4 °F 24.1 °F 64% 30.16 in 10.0 mi NW 12.7 mph - N/A   Scattered Clouds
6:53 PM 34.0 °F 25.0 °F 23.0 °F 64% 30.18 in 10.0 mi NNW 12.7 mph - N/A   Scattered Clouds
7:53 PM 33.1 °F 24.9 °F 24.1 °F 70% 30.21 in 10.0 mi NNW 10.4 mph - N/A   Clear
8:53 PM 32.0 °F 26.4 °F 21.9 °F 66% 30.24 in 10.0 mi NNW 5.8 mph - N/A   Clear
9:53 PM 28.9 °F 25.2 °F 23.0 °F 78% 30.25 in 10.0 mi ESE 3.5 mph - N/A   Clear
10:53 PM 28.0 °F 24.2 °F 23.0 °F 81% 30.27 in 10.0 mi North 3.5 mph - N/A   Clear
11:53 PM 27.0 °F - 23.0 °F 85% 30.30 in 10.0 mi Calm Calm - N/A   Clear